Time,TemperatureF,DewpointF,PressureIn,WindDirection,WindDirectionDegrees,WindSpeedMPH,WindSpeedGustMPH,Humidity,HourlyPrecipIn,Conditions,Clouds,dailyrainin,SoftwareType,DateUTC
2014-07-24 00:00:00,56.3,51.5,29.53,East,86,0.0,0.0,84,0.00,,,0.00,VWS V14.01,2014-07-24 07:00:00,
2014-07-24 00:05:00,56.3,51.5,29.53,East,86,0.0,0.0,84,0.00,,,0.00,VWS V14.01,2014-07-24 07:05:00,
2014-07-24 00:10:00,56.3,51.5,29.53,East,87,0.0,0.0,84,0.00,,,0.00,VWS V14.01,2014-07-24 07:10:00,
2014-07-24 00:15:00,56.3,51.5,29.53,East,86,0.0,0.0,84,0.00,,,0.00,VWS V14.01,2014-07-24 07:15:00,
2014-07-24 00:20:00,56.3,51.5,29.53,East,86,0.0,0.0,84,0.00,,,0.00,VWS V14.01,2014-07-24 07:20:00,
2014-07-24 00:25:00,56.3,51.5,29.53,East,86,0.0,0.0,84,0.00,,,0.00,VWS V14.01,2014-07-24 07:25:00,
2014-07-24 00:30:00,56.3,51.5,29.53,East,87,0.0,0.0,84,0.00,,,0.00,VWS V14.01,2014-07-24 07:30:00,
2014-07-24 00:35:00,56.3,51.5,29.53,East,93,0.0,0.0,84,0.00,,,0.00,VWS V14.01,2014-07-24 07:35:00,
2014-07-24 00:40:00,56.3,51.5,29.53,East,93,0.0,0.0,84,0.00,,,0.00,VWS V14.01,2014-07-24 07:40:00,
2014-07-24 00:45:00,56.3,51.5,29.53,East,93,0.0,0.0,84,0.00,,,0.00,VWS V14.01,2014-07-24 07:45:00,
2014-07-24 00:50:00,56.3,51.5,29.53,East,93,0.0,0.0,84,0.00,,,0.00,VWS V14.01,2014-07-24 07:50:00,
2014-07-24 00:55:00,56.1,51.4,29.53,East,93,0.0,0.0,84,0.00,,,0.00,VWS V14.01,2014-07-24 07:55:00,
2014-07-24 01:00:00,56.1,51.4,29.53,East,93,0.0,0.0,84,0.00,,,0.00,VWS V14.01,2014-07-24 08:00:00,
2014-07-24 01:05:00,56.1,51.4,29.53,East,93,2.7,2.7,84,0.00,,,0.00,VWS V14.01,2014-07-24 08:05:00,
2014-07-24 01:10:00,56.1,51.7,29.53,East,93,0.0,0.0,85,0.00,,,0.00,VWS V14.01,2014-07-24 08:10:00,
2014-07-24 01:15:00,56.1,51.4,29.53,East,93,0.0,0.0,84,0.00,,,0.00,VWS V14.01,2014-07-24 08:15:00,
2014-07-24 01:20:00,56.1,51.7,29.53,East,93,0.0,0.0,85,0.00,,,0.00,VWS V14.01,2014-07-24 08:20:00,
2014-07-24 01:25:00,56.1,51.4,29.53,East,93,0.0,0.0,84,0.00,,,0.00,VWS V14.01,2014-07-24 08:25:00,
2014-07-24 01:30:00,56.1,51.4,29.53,East,93,0.0,0.0,84,0.00,,,0.00,VWS V14.01,2014-07-24 08:30:00,
2014-07-24 01:35:00,56.1,51.4,29.53,East,93,0.0,0.0,84,0.00,,,0.00,VWS V14.01,2014-07-24 08:35:00,
2014-07-24 01:40:00,56.1,51.4,29.53,East,93,0.0,0.0,84,0.00,,,0.00,VWS V14.01,2014-07-24 08:40:00,
2014-07-24 01:45:00,56.1,51.4,29.53,East,93,0.0,0.0,84,0.00,,,0.00,VWS V14.01,2014-07-24 08:45:00,
2014-07-24 01:50:00,56.1,51.4,29.53,East,93,0.0,3.1,84,0.00,,,0.00,VWS V14.01,2014-07-24 08:50:00,
2014-07-24 01:55:00,56.1,51.0,29.53,SSW,206,0.0,0.0,83,0.00,,,0.00,VWS V14.01,2014-07-24 08:55:00,
2014-07-24 02:00:00,56.3,50.9,29.53,SSW,206,3.1,3.1,82,0.00,,,0.00,VWS V14.01,2014-07-24 09:00:00,
2014-07-24 02:05:00,56.3,50.5,29.53,SSW,206,0.0,0.0,81,0.00,,,0.00,VWS V14.01,2014-07-24 09:05:00,
2014-07-24 02:10:00,56.1,50.0,29.53,SSW,206,0.0,0.0,80,0.00,,,0.00,VWS V14.01,2014-07-24 09:10:00,
2014-07-24 02:15:00,56.3,50.2,29.53,SSW,205,0.0,0.0,80,0.00,,,0.00,VWS V14.01,2014-07-24 09:15:00,
2014-07-24 02:20:00,56.1,50.0,29.53,SSW,205,0.0,0.0,80,0.00,,,0.00,VWS V14.01,2014-07-24 09:20:00,
2014-07-24 02:25:00,56.1,50.0,29.53,SSW,205,0.0,0.0,80,0.00,,,0.00,VWS V14.01,2014-07-24 09:25:00,
2014-07-24 02:30:00,56.1,50.4,29.53,SSW,205,0.0,0.0,81,0.00,,,0.00,VWS V14.01,2014-07-24 09:30:00,
2014-07-24 02:35:00,56.1,50.4,29.53,SSW,205,0.0,0.0,81,0.00,,,0.00,VWS V14.01,2014-07-24 09:35:00,
2014-07-24 02:40:00,56.1,50.4,29.53,SSW,205,0.0,2.2,81,0.00,,,0.00,VWS V14.01,2014-07-24 09:40:00,
2014-07-24 02:45:00,56.1,50.4,29.53,SSW,205,0.0,0.0,81,0.00,,,0.00,VWS V14.01,2014-07-24 09:45:00,
2014-07-24 02:50:00,56.1,50.0,29.53,SSW,205,0.0,0.0,80,0.00,,,0.00,VWS V14.01,2014-07-24 09:50:00,
2014-07-24 02:55:00,56.1,49.7,29.53,ENE,76,0.0,3.1,79,0.00,,,0.00,VWS V14.01,2014-07-24 09:55:00,
2014-07-24 03:00:00,56.1,49.0,29.53,East,80,0.0,0.0,77,0.00,,,0.00,VWS V14.01,2014-07-24 10:00:00,
2014-07-24 03:05:00,56.1,49.4,29.53,East,81,0.0,0.0,78,0.00,,,0.00,VWS V14.01,2014-07-24 10:05:00,
2014-07-24 03:10:00,56.1,49.4,29.53,East,81,0.0,0.0,78,0.00,,,0.00,VWS V14.01,2014-07-24 10:10:00,
2014-07-24 03:15:00,55.9,49.2,29.53,NE,50,0.0,0.0,78,0.00,,,0.00,VWS V14.01,2014-07-24 10:15:00,
2014-07-24 03:20:00,55.9,49.2,29.53,NE,51,0.0,0.0,78,0.00,,,0.00,VWS V14.01,2014-07-24 10:20:00,
2014-07-24 03:25:00,55.9,49.2,29.53,NE,51,0.0,0.0,78,0.00,,,0.00,VWS V14.01,2014-07-24 10:25:00,
2014-07-24 03:30:00,56.1,49.4,29.53,SSW,201,0.0,0.0,78,0.00,,,0.00,VWS V14.01,2014-07-24 10:30:00,
2014-07-24 03:35:00,56.1,49.0,29.53,SSW,201,0.0,0.0,77,0.00,,,0.00,VWS V14.01,2014-07-24 10:35:00,
2014-07-24 03:40:00,56.1,49.4,29.53,SSW,199,5.8,5.8,78,0.00,,,0.00,VWS V14.01,2014-07-24 10:40:00,
2014-07-24 03:45:00,56.1,49.0,29.53,SSW,198,0.0,0.0,77,0.00,,,0.00,VWS V14.01,2014-07-24 10:45:00,
2014-07-24 03:49:00,56.3,49.2,29.53,SSW,197,0.0,0.0,77,0.00,,,0.00,VWS V14.01,2014-07-24 10:49:00,
2014-07-24 03:54:00,56.1,48.7,29.53,SSE,167,0.0,4.9,76,0.00,,,0.00,VWS V14.01,2014-07-24 10:54:00,
2014-07-24 03:59:00,56.3,48.8,29.53,SSE,167,0.0,0.0,76,0.00,,,0.00,VWS V14.01,2014-07-24 10:59:00,
2014-07-24 04:04:00,56.3,49.2,29.53,ENE,75,0.0,0.0,77,0.00,,,0.00,VWS V14.01,2014-07-24 11:04:00,
2014-07-24 04:09:00,56.3,49.2,29.53,ENE,75,0.0,0.0,77,0.00,,,0.00,VWS V14.01,2014-07-24 11:09:00,
2014-07-24 04:14:00,56.1,49.4,29.53,ENE,75,0.0,0.0,78,0.00,,,0.00,VWS V14.01,2014-07-24 11:14:00,
2014-07-24 04:20:00,55.9,49.2,29.53,SSE,159,0.0,0.0,78,0.00,,,0.00,VWS V14.01,2014-07-24 11:20:00,
2014-07-24 04:25:00,56.1,49.0,29.53,SSE,159,0.0,0.0,77,0.00,,,0.00,VWS V14.01,2014-07-24 11:25:00,
2014-07-24 04:30:00,56.1,49.0,29.53,East,91,0.0,3.6,77,0.00,,,0.00,VWS V14.01,2014-07-24 11:30:00,
2014-07-24 04:35:00,56.1,49.0,29.53,South,179,0.0,0.0,77,0.00,,,0.00,VWS V14.01,2014-07-24 11:35:00,
2014-07-24 04:40:00,56.1,49.0,29.53,South,179,3.1,3.1,77,0.00,,,0.00,VWS V14.01,2014-07-24 11:40:00,
2014-07-24 04:45:00,56.1,49.4,29.53,South,179,0.0,0.0,78,0.00,,,0.00,VWS V14.01,2014-07-24 11:45:00,
2014-07-24 04:50:00,56.1,49.7,29.53,South,179,0.0,0.0,79,0.00,,,0.00,VWS V14.01,2014-07-24 11:50:00,
2014-07-24 04:55:00,55.9,49.5,29.53,ESE,106,0.0,0.0,79,0.00,,,0.00,VWS V14.01,2014-07-24 11:55:00,
2014-07-24 05:00:00,55.9,49.5,29.53,ESE,106,0.0,0.0,79,0.00,,,0.00,VWS V14.01,2014-07-24 12:00:00,
2014-07-24 05:04:00,55.9,49.9,29.53,ESE,106,0.0,0.0,80,0.00,,,0.00,VWS V14.01,2014-07-24 12:04:00,
2014-07-24 05:09:00,55.8,50.0,29.53,SSE,150,0.0,0.0,81,0.00,,,0.00,VWS V14.01,2014-07-24 12:09:00,
2014-07-24 05:14:00,55.8,50.0,29.53,SSE,150,0.0,0.0,81,0.00,,,0.00,VWS V14.01,2014-07-24 12:14:00,
2014-07-24 05:19:00,55.8,50.4,29.53,SSE,150,0.0,0.0,82,0.00,,,0.00,VWS V14.01,2014-07-24 12:19:00,
2014-07-24 05:24:00,55.8,50.4,29.53,SSE,151,0.0,0.0,82,0.00,,,0.00,VWS V14.01,2014-07-24 12:24:00,
2014-07-24 05:29:00,55.6,50.5,29.56,SSE,151,0.0,0.0,83,0.00,,,0.00,VWS V14.01,2014-07-24 12:29:00,
2014-07-24 05:34:00,55.6,50.5,29.56,SSE,151,0.0,0.0,83,0.00,,,0.00,VWS V14.01,2014-07-24 12:34:00,
2014-07-24 05:39:00,55.6,50.5,29.56,SSE,150,0.0,0.0,83,0.00,,,0.00,VWS V14.01,2014-07-24 12:39:00,
2014-07-24 05:44:00,55.6,50.5,29.56,SSE,150,0.0,0.0,83,0.00,,,0.00,VWS V14.01,2014-07-24 12:44:00,
2014-07-24 05:49:00,55.6,50.5,29.56,SSE,150,0.0,0.0,83,0.00,,,0.00,VWS V14.01,2014-07-24 12:49:00,
2014-07-24 05:54:00,55.8,50.7,29.56,SSE,150,0.0,0.0,83,0.00,,,0.00,VWS V14.01,2014-07-24 12:54:00,
2014-07-24 05:59:00,55.8,50.7,29.56,SSE,150,0.0,0.0,83,0.00,,,0.00,VWS V14.01,2014-07-24 12:59:00,
2014-07-24 06:04:00,55.9,50.9,29.56,SSE,152,0.0,0.0,83,0.00,,,0.00,VWS V14.01,2014-07-24 13:04:00,
2014-07-24 06:09:00,55.9,50.9,29.56,SSE,152,0.0,0.0,83,0.00,,,0.00,VWS V14.01,2014-07-24 13:09:00,
2014-07-24 06:14:00,55.9,50.9,29.56,SSE,152,0.0,0.0,83,0.00,,,0.00,VWS V14.01,2014-07-24 13:14:00,
2014-07-24 06:20:00,56.1,51.0,29.56,SSE,152,0.0,0.0,83,0.00,,,0.00,VWS V14.01,2014-07-24 13:20:00,
2014-07-24 06:25:00,56.1,51.0,29.56,SSE,152,0.0,0.0,83,0.00,,,0.00,VWS V14.01,2014-07-24 13:25:00,
2014-07-24 06:30:00,56.1,51.0,29.56,SSE,152,0.0,0.0,83,0.00,,,0.00,VWS V14.01,2014-07-24 13:30:00,
2014-07-24 06:35:00,56.1,51.0,29.56,SSE,152,0.0,0.0,83,0.00,,,0.00,VWS V14.01,2014-07-24 13:35:00,
2014-07-24 06:39:00,56.3,51.2,29.56,SSE,152,0.0,0.0,83,0.00,,,0.00,VWS V14.01,2014-07-24 13:39:00,
2014-07-24 06:44:00,56.3,51.2,29.56,SSE,152,0.0,0.0,83,0.00,,,0.00,VWS V14.01,2014-07-24 13:44:00,
2014-07-24 06:49:00,56.3,51.5,29.56,SSE,152,0.0,0.0,84,0.00,,,0.00,VWS V14.01,2014-07-24 13:49:00,
2014-07-24 06:54:00,56.5,51.7,29.56,SSE,152,0.0,0.0,84,0.00,,,0.00,VWS V14.01,2014-07-24 13:54:00,
2014-07-24 06:59:00,56.5,51.7,29.56,SSE,152,0.0,0.0,84,0.00,,,0.00,VWS V14.01,2014-07-24 13:59:00,
2014-07-24 07:04:00,56.5,51.7,29.56,SSE,152,0.0,0.0,84,0.00,,,0.00,VWS V14.01,2014-07-24 14:04:00,
2014-07-24 07:09:00,56.5,51.7,29.56,SSE,152,0.0,0.0,84,0.00,,,0.00,VWS V14.01,2014-07-24 14:09:00,
2014-07-24 07:14:00,56.7,52.2,29.56,SSE,152,0.0,0.0,85,0.00,,,0.00,VWS V14.01,2014-07-24 14:14:00,
2014-07-24 07:19:00,56.7,52.2,29.56,SSE,152,0.0,0.0,85,0.00,,,0.00,VWS V14.01,2014-07-24 14:19:00,
2014-07-24 07:24:00,56.7,52.2,29.56,SSE,152,0.0,0.0,85,0.00,,,0.00,VWS V14.01,2014-07-24 14:24:00,
2014-07-24 07:29:00,56.8,52.4,29.56,SSE,152,0.0,3.6,85,0.00,,,0.00,VWS V14.01,2014-07-24 14:29:00,
2014-07-24 07:34:00,56.8,52.4,29.56,SSE,152,2.7,3.1,85,0.00,,,0.00,VWS V14.01,2014-07-24 14:34:00,
2014-07-24 07:39:00,56.8,52.4,29.56,SSE,163,0.0,0.0,85,0.00,,,0.00,VWS V14.01,2014-07-24 14:39:00,
2014-07-24 07:44:00,56.8,52.4,29.59,SSE,163,0.0,0.0,85,0.00,,,0.00,VWS V14.01,2014-07-24 14:44:00,
2014-07-24 07:49:00,56.8,52.4,29.59,SSE,164,0.0,0.0,85,0.00,,,0.00,VWS V14.01,2014-07-24 14:49:00,
2014-07-24 07:54:00,57.0,52.6,29.59,SSE,164,2.2,2.2,85,0.00,,,0.00,VWS V14.01,2014-07-24 14:54:00,
2014-07-24 07:59:00,57.0,52.2,29.59,South,181,0.0,0.0,84,0.00,,,0.00,VWS V14.01,2014-07-24 14:59:00,
2014-07-24 08:04:00,57.2,52.1,29.59,South,177,3.6,3.6,83,0.00,,,0.00,VWS V14.01,2014-07-24 15:04:00,
2014-07-24 08:09:00,57.0,51.3,29.59,NE,44,0.0,0.0,81,0.00,,,0.00,VWS V14.01,2014-07-24 15:09:00,
2014-07-24 08:14:00,57.2,51.1,29.59,NE,44,0.0,0.0,80,0.00,,,0.00,VWS V14.01,2014-07-24 15:14:00,
2014-07-24 08:19:00,57.6,51.5,29.59,NE,44,0.0,0.0,80,0.00,,,0.00,VWS V14.01,2014-07-24 15:19:00,
2014-07-24 08:24:00,57.7,51.6,29.59,NE,44,2.2,2.2,80,0.00,,,0.00,VWS V14.01,2014-07-24 15:24:00,
2014-07-24 08:29:00,57.9,51.5,29.59,NE,44,0.0,0.0,79,0.00,,,0.00,VWS V14.01,2014-07-24 15:29:00,
2014-07-24 08:34:00,57.9,51.5,29.59,ESE,105,2.2,2.2,79,0.00,,,0.00,VWS V14.01,2014-07-24 15:34:00,
2014-07-24 08:39:00,58.1,50.6,29.59,SSE,158,0.0,0.0,76,0.00,,,0.00,VWS V14.01,2014-07-24 15:39:00,
2014-07-24 08:44:00,58.3,50.4,29.59,South,188,2.2,2.7,75,0.00,,,0.00,VWS V14.01,2014-07-24 15:44:00,
2014-07-24 08:49:00,58.5,50.6,29.59,South,188,0.0,0.0,75,0.00,,,0.00,VWS V14.01,2014-07-24 15:49:00,
2014-07-24 08:54:00,58.5,50.6,29.59,South,175,0.0,0.0,75,0.00,,,0.00,VWS V14.01,2014-07-24 15:54:00,
2014-07-24 08:59:00,58.5,50.2,29.59,South,175,0.0,0.0,74,0.00,,,0.00,VWS V14.01,2014-07-24 15:59:00,
2014-07-24 09:04:00,58.8,51.3,29.59,South,175,0.0,2.7,76,0.00,,,0.00,VWS V14.01,2014-07-24 16:04:00,
2014-07-24 09:09:00,58.8,50.9,29.59,South,175,0.0,0.0,75,0.00,,,0.00,VWS V14.01,2014-07-24 16:09:00,
2014-07-24 09:14:00,59.2,51.6,29.59,SSW,208,0.0,0.0,76,0.00,,,0.00,VWS V14.01,2014-07-24 16:14:00,
2014-07-24 09:19:00,59.2,50.9,29.59,SSE,160,0.0,0.0,74,0.00,,,0.00,VWS V14.01,2014-07-24 16:19:00,
2014-07-24 09:24:00,59.5,51.3,29.59,ESE,103,0.0,0.0,74,0.00,,,0.00,VWS V14.01,2014-07-24 16:24:00,
2014-07-24 09:29:00,59.9,51.2,29.59,ESE,103,0.0,2.7,73,0.00,,,0.00,VWS V14.01,2014-07-24 16:29:00,
2014-07-24 09:34:00,60.4,51.8,29.59,SE,143,3.6,3.6,73,0.00,,,0.00,VWS V14.01,2014-07-24 16:34:00,
2014-07-24 09:39:00,61.0,52.3,29.59,SE,145,0.0,3.6,73,0.00,,,0.00,VWS V14.01,2014-07-24 16:39:00,
2014-07-24 09:44:00,61.3,51.9,29.59,SSE,162,0.0,0.0,71,0.00,,,0.00,VWS V14.01,2014-07-24 16:44:00,
2014-07-24 09:49:00,61.5,51.7,29.59,ENE,70,7.6,7.6,70,0.00,,,0.00,VWS V14.01,2014-07-24 16:49:00,
2014-07-24 09:54:00,61.3,50.3,29.59,SE,135,0.0,2.7,67,0.00,,,0.00,VWS V14.01,2014-07-24 16:54:00,
2014-07-24 09:59:00,61.2,49.7,29.62,East,95,0.0,0.0,66,0.00,,,0.00,VWS V14.01,2014-07-24 16:59:00,
2014-07-24 10:04:00,61.2,50.5,29.62,SSW,199,0.0,0.0,68,0.00,,,0.00,VWS V14.01,2014-07-24 17:04:00,
2014-07-24 10:09:00,61.3,51.1,29.62,SSW,199,0.0,0.0,69,0.00,,,0.00,VWS V14.01,2014-07-24 17:09:00,
2014-07-24 10:14:00,61.7,52.2,29.62,SSE,154,3.6,3.6,71,0.00,,,0.00,VWS V14.01,2014-07-24 17:14:00,
2014-07-24 10:19:00,61.7,51.0,29.62,South,189,2.7,3.6,68,0.00,,,0.00,VWS V14.01,2014-07-24 17:19:00,
2014-07-24 10:24:00,61.9,51.2,29.62,SSE,149,2.2,4.0,68,0.00,,,0.00,VWS V14.01,2014-07-24 17:24:00,
2014-07-24 10:29:00,62.1,51.8,29.62,East,101,2.7,2.7,69,0.00,,,0.00,VWS V14.01,2014-07-24 17:29:00,
2014-07-24 10:34:00,62.2,51.2,29.62,NW,317,2.7,4.0,67,0.00,,,0.00,VWS V14.01,2014-07-24 17:34:00,
2014-07-24 10:39:00,62.4,51.3,29.62,SE,136,3.1,3.1,67,0.00,,,0.00,VWS V14.01,2014-07-24 17:39:00,
2014-07-24 10:44:00,62.6,51.1,29.62,SE,137,0.0,0.0,66,0.00,,,0.00,VWS V14.01,2014-07-24 17:44:00,
2014-07-24 10:49:00,63.0,50.2,29.62,SE,137,0.0,4.0,63,0.00,,,0.00,VWS V14.01,2014-07-24 17:49:00,
2014-07-24 10:54:00,63.7,50.9,29.62,ESE,117,2.7,4.0,63,0.00,,,0.00,VWS V14.01,2014-07-24 17:54:00,
2014-07-24 10:59:00,64.2,50.9,29.62,ESE,116,0.0,5.8,62,0.00,,,0.00,VWS V14.01,2014-07-24 17:59:00,
2014-07-24 11:04:00,64.4,48.8,29.62,East,93,2.7,2.7,57,0.00,,,0.00,VWS V14.01,2014-07-24 18:04:00,
2014-07-24 11:09:00,64.6,48.1,29.62,SSW,199,0.0,3.6,55,0.00,,,0.00,VWS V14.01,2014-07-24 18:09:00,
2014-07-24 11:14:00,64.6,50.0,29.62,ENE,77,4.0,4.0,59,0.00,,,0.00,VWS V14.01,2014-07-24 18:14:00,
2014-07-24 11:19:00,64.9,50.7,29.62,East,86,2.7,2.7,60,0.00,,,0.00,VWS V14.01,2014-07-24 18:19:00,